Starlink 32001

operational
NORAD ID: 60110 Int'l Des: 2024-117 Owner: SPXS Country: US Constellation: starlink
LEOCIRCULAR

About Starlink 32001

Description loading...

Live Position

Loading 3D Globe...

Upcoming Passes

Altitude History

Altitude vs Time

uPlot chart will show altitude changes over time

Two-Line Element Set

1 60110U 24117V 26035.66289361 -.00001037 00000-0 -22890-4 0 9998
2 60110 53.1589 190.2605 0001145 92.2937 267.8195 15.30190911 91836
Epoch: Feb 4, 2026 • Age: 23 hours

Current Status

Altitude 476.0 km
Velocity 7.63 km/s
Sub-Earth Point 26.73°N, 9.25°W
Launch Date Jun 23, 2024
Age 1.6 years
Type internet

Technical Details

Classification Payload
Mass 730.00 kg
Dry Mass 700.00 kg
Total Mass 730.00 kg
Length 0.30 m
Diameter 4.10 m
Span 29.00 m
Shape Box + pan
Manufacturer SPXS
Bus Type Starlink V2M
Phase Status In Orbit
Owner/State SPXS/US

Large Constellations

Loading constellations...